Location: Cañada de la Miga
(34.7595°N, 106.2317°W)
Time: 13:51:07
(UTC+00:00)

Courier 1B Rocket - Visible Passes

Search period start: 08 December 2021 00:00
Search period end: 18 December 2021 00:00
Orbit: 920 x 1202 km, 28.2° (Epoch: 08 December)

Date Brightness Start Highest point End Pass type
(mag) Time Alt. Az. Time Alt. Az. Time Alt. Az.
08 Dec 6.7 02:18:43 10° SSW 02:22:59 20° SSE 02:22:59 20° SSE visible
09 Dec 7.0 01:18:54 10° S 01:22:44 15° SSE 01:25:50 11° SE visible
09 Dec 6.9 03:09:26 10° SW 03:12:12 22° SSW 03:12:12 22° SSW visible
10 Dec 7.4 00:21:02 10° SSE 00:21:48 10° SSE 00:22:34 10° SE visible
10 Dec 6.3 02:08:44 10° SW 02:14:41 28° SSE 02:15:02 28° SSE visible
10 Dec 7.7 04:01:08 10° WSW 04:01:24 11° WSW 04:01:24 11° WSW visible
11 Dec 6.8 01:08:18 10° SSW 01:13:42 22° SSE 01:17:51 13° ESE visible
11 Dec 6.5 03:00:05 10° SW 03:04:13 31° SSW 03:04:13 31° SSW visible
12 Dec 6.0 01:59:07 10° SW 02:05:42 36° SSE 02:07:01 33° SE visible
12 Dec 7.5 03:52:04 10° WSW 03:53:23 16° WSW 03:53:23 16° WSW visible
13 Dec 6.5 00:58:21 10° SW 01:04:41 29° SSE 01:09:48 13° ESE visible
13 Dec 6.1 02:50:53 10° WSW 02:56:10 40° SSW 02:56:10 40° SSW visible
14 Dec 5.9 01:49:46 10° WSW 01:56:45 43° SSE 01:58:57 34° SE visible
14 Dec 7.2 03:43:05 10° WSW 03:45:19 21° WSW 03:45:19 21° WSW visible
15 Dec 6.3 00:48:46 10° SW 00:55:40 37° SSE 01:01:43 12° ESE visible
15 Dec 5.8 02:41:48 10° WSW 02:48:06 49° SSW 02:48:06 49° SSW visible
16 Dec 5.8 01:40:33 10° WSW 01:47:49 49° S 01:50:52 31° ESE visible
16 Dec 7.0 03:34:07 10° W 03:37:14 25° WSW 03:37:14 25° WSW visible
17 Dec 6.1 00:39:25 10° WSW 00:46:40 45° SSE 00:53:34 10° E visible
17 Dec 5.6 02:32:46 10° WSW 02:40:01 52° S 02:40:02 52° S visible
